FW5345 Weather Reports


time (UTC)temp
F
wind
direction
speed
knots
gust
knots
rain 1hr
in
rain 24hr
in
rain mn
in
humidity
%
barometer
mb
20260502194534 69 293 0.0 3.5 0.00 0.00 0.00 56 1015.6
20260502193035 65 200 1.7 4.3 0.00 0.00 0.00 68 1015.7
20260502191534 63 238 1.7 4.3 0.00 0.00 0.00 71 1016.1
20260502184536 64 4 0.9 2.6 0.00 0.00 0.00 65 1016.7
20260502181531 65 359 1.7 4.3 0.00 0.00 0.00 63 1016.7
20260502163035 57 28 0.9 4.3 0.00 0.00 0.00 80 1016.2
20260502161605 56 340 0.9 3.5 0.00 0.00 0.00 82 1016.3
20260502151531 55 135 0.0 0.0 0.00 0.00 0.00 85 1015.9
20260502123031 53 157 0.0 1.7 0.00 0.00 0.00 83 1014.9
20260502121542 53 147 0.0 1.7 0.00 0.00 0.00 84 1014.9
20260502120110 53 132 0.9 4.3 0.00 0.00 0.00 83 1014.9
20260502114535 53 150 3.5 5.2 0.00 0.00 0.00 83 1015.2
20260502113031 53 153 2.6 4.3 0.00 0.00 0.00 83 1015.3
20260502111542 53 123 1.7 3.5 0.00 0.00 0.00 83 1015.3
20260502111535 54 132 2.6 5.2 0.00 0.00 0.00 82 1015.3
20260502104641 54 215 0.9 4.3 0.00 0.00 0.00 83 1015.4
20260502101533 54 141 1.7 3.5 0.00 0.00 0.00 80 1015.8
20260502090107 54 159 1.7 3.5 0.00 0.00 0.00 79 1016.0
20260502070109 56 134 2.6 3.5 0.00 0.00 0.00 78 1016.2
20260502064538 57 148 1.7 3.5 0.00 0.00 0.00 76 1016.2
20260502063035 57 117 2.6 4.3 0.00 0.00 0.00 76 1016.2
20260502060036 58 97 2.6 4.3 0.00 0.00 0.00 76 1016.1
20260502054535 58 116 1.7 4.3 0.00 0.00 0.00 76 1016.1
20260502053036 59 112 1.7 5.2 0.00 0.00 0.00 74 1016.0
20260502050036 60 94 0.0 3.5 0.00 0.00 0.00 70 1015.8
20260502044536 61 37 0.9 3.5 0.00 0.00 0.00 69 1015.6
20260502043032 62 82 0.9 5.2 0.00 0.00 0.00 68 1015.4
20260502040110 63 70 2.6 8.7 0.00 0.00 0.00 65 1015.2
20260502034534 64 270 1.7 5.2 0.00 0.00 0.00 62 1015.0
20260502033109 65 7 1.7 6.1 0.00 0.00 0.00 60 1015.0
20260502030033 68 268 0.9 4.3 0.00 0.00 0.00 53 1014.5
20260502023154 69 346 0.9 6.1 0.00 0.00 0.00 51 1014.2
20260502023142 71 25 0.9 3.5 0.00 0.00 0.00 45 1014.0
20260502020033 72 251 0.0 1.7 0.00 0.00 0.00 43 1014.1
20260502014531 73 247 0.0 0.9 0.00 0.00 0.00 39 1014.1
20260502013036 74 281 0.0 1.7 0.00 0.00 0.00 37 1014.1
20260502011534 74 297 0.0 1.7 0.00 0.00 0.00 37 1014.1
20260502010110 74 308 0.0 1.7 0.00 0.00 0.00 36 1014.0
20260502004537 74 300 0.9 7.0 0.00 0.00 0.00 36 1014.1
20260502003035 74 328 2.6 6.1 0.00 0.00 0.00 37 1014.2
20260502001535 74 322 2.6 6.1 0.00 0.00 0.00 35 1014.2
20260502000142 74 327 2.6 5.2 0.00 0.00 0.00 36 1014.4
20260501234609 73 354 3.5 6.1 0.00 0.00 0.00 38 1014.5
20260501233036 73 337 1.7 4.3 0.00 0.00 0.00 38 1014.7
20260501231530 74 309 2.6 6.1 0.00 0.00 0.00 38 1014.9
20260501230035 74 332 3.5 9.6 0.00 0.00 0.00 38 1015.0
20260501223035 73 301 3.5 6.1 0.00 0.00 0.00 39 1015.4
20260501220037 72 332 3.5 7.0 0.00 0.00 0.00 40 1015.9
20260501214536 71 349 3.5 7.0 0.00 0.00 0.00 41 1016.0
20260501213035 72 337 4.3 7.8 0.00 0.00 0.00 42 1016.0
20260501210035 70 319 2.6 5.2 0.00 0.00 0.00 42 1016.3
20260501203033 70 345 3.5 8.7 0.00 0.00 0.00 42 1016.6
20260501201652 69 309 2.6 6.1 0.00 0.00 0.00 43 1016.8
20260501200033 68 300 2.6 6.1 0.00 0.00 0.00 44 1017.0